timestamp,wind_dir_avg,wind_spd_avg,wind_spd_max_dir,wind_spd_gust,battery_voltage,lat,long
2022-04-28 00:04:00+00:00,230.0,5.9,234.0,6.54,12.73,47.59359,-54.27349
2022-04-28 00:14:00+00:00,236.0,6.0,237.0,6.28,12.41,47.59359,-54.27349
2022-04-28 00:24:00+00:00,240.0,6.06,235.0,6.39,12.41,47.59359,-54.27349
2022-04-28 00:34:00+00:00,244.0,5.64,244.0,6.01,12.41,47.59359,-54.27349
2022-04-28 00:44:00+00:00,234.0,3.53,248.0,5.32,12.41,47.59359,-54.27349
2022-04-28 00:54:00+00:00,187.0,3.26,187.0,3.6,12.41,47.59359,-54.27349
2022-04-28 01:04:00+00:00,209.0,3.6,230.0,5.95,12.41,47.59359,-54.27349
2022-04-28 01:14:01+00:00,194.0,2.76,216.0,3.47,12.33,47.59359,-54.27349
2022-04-28 01:24:01+00:00,244.0,6.14,250.0,6.63,12.33,47.59359,-54.27349
2022-04-28 01:34:01+00:00,248.0,6.01,252.0,6.81,12.33,47.59359,-54.27349
2022-04-28 01:44:01+00:00,249.0,5.95,250.0,6.58,12.33,47.59359,-54.27349
2022-04-28 01:54:01+00:00,246.0,4.79,251.0,5.84,12.33,47.59359,-54.27349
2022-04-28 02:04:01+00:00,238.0,4.93,239.0,6.45,12.33,47.59359,-54.27349
2022-04-28 02:14:01+00:00,238.0,5.03,243.0,5.68,12.33,47.59359,-54.27349
2022-04-28 02:24:01+00:00,210.0,3.0,228.0,3.82,12.33,47.59359,-54.27349
2022-04-28 02:34:01+00:00,220.0,3.05,235.0,4.43,12.33,47.59359,-54.27349
2022-04-28 02:44:01+00:00,211.0,1.96,239.0,3.6,12.33,47.59359,-54.27349
2022-04-28 02:54:01+00:00,238.0,3.92,244.0,5.09,12.33,47.59359,-54.27349
2022-04-28 03:04:01+00:00,233.0,2.81,243.0,3.89,12.33,47.59359,-54.27349
2022-04-28 03:14:01+00:00,195.0,1.84,196.0,2.01,12.33,47.59359,-54.27349
2022-04-28 03:24:01+00:00,181.0,3.78,179.0,4.12,12.33,47.59359,-54.27349
2022-04-28 03:34:01+00:00,220.0,4.32,232.0,5.52,12.33,47.59359,-54.27349
2022-04-28 03:44:01+00:00,226.0,4.11,235.0,5.1,12.33,47.59359,-54.27349
2022-04-28 03:54:01+00:00,235.0,4.17,246.0,5.4,12.33,47.59359,-54.27349
2022-04-28 04:04:01+00:00,236.0,3.43,249.0,4.81,12.33,47.59359,-54.27349
2022-04-28 04:14:00+00:00,223.0,4.05,228.0,4.81,12.25,47.59359,-54.27349
2022-04-28 04:24:00+00:00,231.0,3.85,230.0,4.44,12.25,47.59359,-54.27349
2022-04-28 04:34:00+00:00,222.0,3.63,225.0,4.02,12.25,47.59359,-54.27349
2022-04-28 04:44:00+00:00,220.0,3.28,233.0,4.21,12.25,47.59359,-54.27349
2022-04-28 04:54:00+00:00,216.0,3.37,229.0,4.14,12.25,47.59359,-54.27349
2022-04-28 05:04:00+00:00,225.0,2.75,234.0,3.59,12.25,47.59359,-54.27349
2022-04-28 05:14:01+00:00,203.0,2.67,199.0,3.07,12.25,47.59359,-54.27349
2022-04-28 05:24:01+00:00,227.0,3.12,236.0,3.96,12.25,47.59359,-54.27349
2022-04-28 05:34:01+00:00,235.0,3.72,243.0,4.19,12.25,47.59359,-54.27349
2022-04-28 05:44:01+00:00,227.0,3.81,239.0,4.6,12.25,47.59359,-54.27349
2022-04-28 05:54:01+00:00,229.0,3.62,244.0,4.84,12.25,47.59359,-54.27349
2022-04-28 06:04:01+00:00,220.0,3.75,231.0,4.38,12.25,47.59359,-54.27349
2022-04-28 06:14:00+00:00,227.0,3.84,236.0,4.49,12.25,47.59359,-54.27349
2022-04-28 06:24:00+00:00,228.0,2.75,235.0,4.05,12.25,47.59359,-54.27349
2022-04-28 06:34:00+00:00,227.0,3.22,231.0,3.71,12.25,47.59359,-54.27349
2022-04-28 06:44:00+00:00,223.0,3.53,216.0,4.22,12.25,47.59359,-54.27349
2022-04-28 06:54:00+00:00,207.0,2.98,212.0,3.71,12.25,47.59359,-54.27349
2022-04-28 07:04:00+00:00,201.0,3.26,210.0,3.98,12.25,47.59359,-54.27349
2022-04-28 07:14:00+00:00,197.0,3.24,201.0,3.64,12.25,47.59359,-54.27349
2022-04-28 07:24:00+00:00,204.0,3.46,213.0,4.21,12.25,47.59359,-54.27349
2022-04-28 07:34:00+00:00,178.0,2.27,176.0,2.48,12.25,47.59359,-54.27349
2022-04-28 07:44:00+00:00,150.0,1.35,150.0,1.51,12.25,47.59359,-54.27349
2022-04-28 07:54:00+00:00,148.0,1.26,145.0,1.39,12.25,47.59359,-54.27349
2022-04-28 08:04:00+00:00,152.0,1.43,154.0,1.53,12.25,47.59359,-54.27349
2022-04-28 08:14:01+00:00,130.0,1.9,131.0,2.14,12.09,47.59359,-54.27349
2022-04-28 08:24:01+00:00,137.0,2.07,143.0,2.41,12.09,47.59359,-54.27349
2022-04-28 08:34:01+00:00,150.0,2.42,148.0,2.93,12.09,47.59359,-54.27349
2022-04-28 08:44:01+00:00,158.0,3.11,163.0,3.48,12.09,47.59359,-54.27349
2022-04-28 08:54:01+00:00,152.0,3.09,157.0,3.37,12.09,47.59359,-54.27349
2022-04-28 09:04:01+00:00,157.0,1.61,151.0,1.94,12.09,47.59359,-54.27349
2022-04-28 09:14:01+00:00,174.0,1.52,174.0,1.66,12.25,47.59359,-54.27349
2022-04-28 09:24:01+00:00,175.0,1.12,174.0,1.22,12.25,47.59359,-54.27349
2022-04-28 09:34:01+00:00,166.0,0.96,164.0,1.11,12.25,47.59359,-54.27349
2022-04-28 09:44:01+00:00,177.0,0.8,171.0,1.02,12.25,47.59359,-54.27349
2022-04-28 09:54:01+00:00,262.0,0.45,257.0,0.52,12.25,47.59359,-54.27349
2022-04-28 10:04:01+00:00,301.0,0.93,306.0,1.03,12.25,47.59359,-54.27349
2022-04-28 10:14:00+00:00,279.0,0.46,287.0,0.67,12.97,47.59359,-54.27349
2022-04-28 10:24:00+00:00,199.0,0.11,201.0,0.28,12.97,47.59359,-54.27349
2022-04-28 10:34:00+00:00,3.0,0.8,357.0,1.11,12.97,47.59359,-54.27349
2022-04-28 10:44:00+00:00,349.0,1.21,350.0,1.34,12.97,47.59359,-54.27349
2022-04-28 10:54:00+00:00,0.0,1.4,0.0,1.54,12.97,47.59359,-54.27349
2022-04-28 11:04:00+00:00,4.0,1.44,11.0,1.59,12.97,47.59359,-54.27349
2022-04-28 11:14:01+00:00,19.0,2.02,22.0,2.28,13.53,47.59359,-54.27349
2022-04-28 11:24:01+00:00,27.0,2.2,31.0,2.38,13.53,47.59359,-54.27349
2022-04-28 11:34:01+00:00,14.0,1.95,13.0,2.16,13.53,47.59359,-54.27349
2022-04-28 11:44:01+00:00,8.0,2.24,5.0,2.6,13.53,47.59359,-54.27349
2022-04-28 11:54:01+00:00,10.0,2.45,8.0,2.77,13.53,47.59359,-54.27349
2022-04-28 12:04:01+00:00,29.0,3.37,28.0,3.57,13.53,47.59359,-54.27349
2022-04-28 12:14:01+00:00,35.0,3.15,39.0,3.48,13.68,47.59359,-54.27349
2022-04-28 12:24:01+00:00,29.0,2.66,30.0,2.99,13.68,47.59359,-54.27349
2022-04-28 12:34:01+00:00,31.0,2.82,32.0,3.07,13.68,47.59359,-54.27349
2022-04-28 12:44:01+00:00,32.0,3.51,33.0,3.67,13.68,47.59359,-54.27349
2022-04-28 12:54:01+00:00,34.0,3.59,31.0,4.02,13.68,47.59359,-54.27349
2022-04-28 13:04:01+00:00,37.0,4.46,35.0,4.77,13.68,47.59359,-54.27349
2022-04-28 13:14:01+00:00,33.0,3.69,38.0,4.09,14.0,47.59359,-54.27349
2022-04-28 13:24:01+00:00,30.0,3.77,33.0,4.19,14.0,47.59359,-54.27349
2022-04-28 13:34:01+00:00,35.0,4.98,38.0,5.35,14.0,47.59359,-54.27349
2022-04-28 13:44:01+00:00,28.0,3.9,32.0,4.59,14.0,47.59359,-54.27349
2022-04-28 13:54:01+00:00,20.0,3.99,23.0,4.34,14.0,47.59359,-54.27349
2022-04-28 14:04:01+00:00,16.0,3.89,23.0,4.72,14.0,47.59359,-54.27349
2022-04-28 14:14:01+00:00,27.0,4.78,26.0,5.16,14.08,47.59359,-54.27349
2022-04-28 14:24:01+00:00,23.0,4.63,28.0,5.16,14.08,47.59359,-54.27349
2022-04-28 14:34:01+00:00,41.0,4.45,43.0,4.84,14.08,47.59359,-54.27349
2022-04-28 14:44:01+00:00,38.0,4.62,39.0,5.2,14.08,47.59359,-54.27349
2022-04-28 14:54:01+00:00,43.0,4.76,55.0,6.05,14.08,47.59359,-54.27349
2022-04-28 15:04:01+00:00,51.0,3.78,46.0,4.79,14.08,47.59359,-54.27349
2022-04-28 15:14:00+00:00,43.0,5.31,42.0,5.86,14.24,47.59359,-54.27349
2022-04-28 15:24:00+00:00,50.0,6.77,49.0,7.49,14.24,47.59359,-54.27349
2022-04-28 15:34:00+00:00,53.0,6.69,53.0,7.34,14.24,47.59359,-54.27349
2022-04-28 15:44:00+00:00,54.0,7.21,54.0,7.86,14.24,47.59359,-54.27349
2022-04-28 15:54:00+00:00,55.0,7.15,56.0,7.92,14.24,47.59359,-54.27349
2022-04-28 16:04:00+00:00,43.0,6.83,44.0,7.51,14.24,47.59359,-54.27349
2022-04-28 16:14:00+00:00,45.0,6.96,43.0,7.48,13.68,47.59359,-54.27349
2022-04-28 16:24:00+00:00,41.0,6.72,43.0,7.32,13.68,47.59359,-54.27349
2022-04-28 16:34:00+00:00,42.0,6.64,40.0,7.23,13.68,47.59359,-54.27349
2022-04-28 16:44:00+00:00,45.0,6.92,46.0,7.54,13.68,47.59359,-54.27349
2022-04-28 16:54:00+00:00,49.0,6.35,51.0,7.17,13.68,47.59359,-54.27349
2022-04-28 17:04:00+00:00,53.0,6.5,54.0,7.3,13.68,47.59359,-54.27349
2022-04-28 17:14:01+00:00,48.0,6.24,45.0,7.24,14.16,47.59359,-54.27349
2022-04-28 17:24:01+00:00,47.0,6.48,45.0,7.02,14.16,47.59359,-54.27349
2022-04-28 17:34:01+00:00,42.0,6.06,42.0,6.76,14.16,47.59359,-54.27349
2022-04-28 17:44:01+00:00,38.0,5.91,29.0,6.85,14.16,47.59359,-54.27349
2022-04-28 17:54:01+00:00,44.0,5.19,58.0,6.39,14.16,47.59359,-54.27349
2022-04-28 18:04:01+00:00,54.0,5.56,56.0,7.19,14.16,47.59359,-54.27349
2022-04-28 18:14:01+00:00,63.0,6.38,63.0,6.82,13.84,47.59359,-54.27349
2022-04-28 18:24:01+00:00,78.0,5.08,74.0,6.57,13.84,47.59359,-54.27349
2022-04-28 18:34:01+00:00,84.0,4.77,74.0,6.23,13.84,47.59359,-54.27349
2022-04-28 18:44:01+00:00,81.0,3.53,98.0,5.81,13.84,47.59359,-54.27349
2022-04-28 18:54:01+00:00,91.0,2.96,78.0,4.02,13.84,47.59359,-54.27349
2022-04-28 19:04:01+00:00,95.0,3.27,79.0,4.7,13.84,47.59359,-54.27349
2022-04-28 19:14:01+00:00,69.0,4.1,69.0,4.81,13.76,47.59359,-54.27349
2022-04-28 19:24:01+00:00,64.0,3.71,62.0,4.11,13.76,47.59359,-54.27349
2022-04-28 19:34:01+00:00,75.0,6.07,73.0,6.37,13.76,47.59359,-54.27349
2022-04-28 19:44:01+00:00,63.0,7.03,70.0,8.9,13.76,47.59359,-54.27349
2022-04-28 19:54:01+00:00,48.0,3.79,61.0,6.1,13.76,47.59359,-54.27349
2022-04-28 20:04:01+00:00,66.0,6.07,65.0,6.49,13.76,47.59359,-54.27349
2022-04-28 20:14:01+00:00,52.0,4.93,66.0,7.03,13.84,47.59359,-54.27349
2022-04-28 20:24:01+00:00,53.0,4.28,66.0,6.71,13.84,47.59359,-54.27349
2022-04-28 20:34:01+00:00,74.0,6.02,71.0,6.52,13.84,47.59359,-54.27349
2022-04-28 20:44:01+00:00,65.0,5.73,70.0,7.19,13.84,47.59359,-54.27349
2022-04-28 20:54:01+00:00,65.0,6.57,65.0,7.28,13.84,47.59359,-54.27349
2022-04-28 21:04:01+00:00,60.0,5.1,68.0,7.13,13.84,47.59359,-54.27349
2022-04-28 21:14:01+00:00,69.0,6.72,70.0,7.06,13.68,47.59359,-54.27349
2022-04-28 21:24:01+00:00,74.0,5.86,72.0,6.25,13.68,47.59359,-54.27349
2022-04-28 21:34:01+00:00,66.0,4.37,74.0,6.95,13.68,47.59359,-54.27349
2022-04-28 21:44:01+00:00,77.0,5.54,77.0,6.54,13.68,47.59359,-54.27349
2022-04-28 21:54:01+00:00,73.0,4.46,74.0,5.76,13.68,47.59359,-54.27349
2022-04-28 22:04:01+00:00,74.0,4.8,81.0,6.25,13.68,47.59359,-54.27349
2022-04-28 22:14:00+00:00,70.0,5.98,68.0,6.82,13.29,47.59359,-54.27349
2022-04-28 22:24:00+00:00,73.0,6.05,71.0,7.96,13.29,47.59359,-54.27349
2022-04-28 22:34:00+00:00,72.0,5.14,67.0,6.18,13.29,47.59359,-54.27349
2022-04-28 22:44:00+00:00,66.0,4.42,55.0,5.71,13.29,47.59359,-54.27349
2022-04-28 22:54:00+00:00,83.0,4.38,93.0,6.49,13.29,47.59359,-54.27349
2022-04-28 23:04:00+00:00,83.0,4.97,78.0,6.9,13.29,47.59359,-54.27349
2022-04-28 23:14:01+00:00,74.0,4.53,76.0,6.79,12.65,47.59359,-54.27349
2022-04-28 23:24:01+00:00,77.0,4.67,91.0,6.59,12.65,47.59359,-54.27349
2022-04-28 23:34:01+00:00,87.0,4.79,75.0,6.82,12.65,47.59359,-54.27349
2022-04-28 23:44:01+00:00,76.0,4.29,84.0,6.62,12.65,47.59359,-54.27349
2022-04-28 23:54:01+00:00,81.0,5.37,86.0,6.65,12.65,47.59359,-54.27349
